www.pogodaiklimat.ru
ПОГОДА в Туямуюне

Архив погоды в Туямуюне (Хорезмская область, Узбекистан)

Время
и дата
19:10 16.04
19:30 16.04
19:40 16.04
19:50 16.04
20:00 16.04
20:10 16.04
20:20 16.04
20:30 16.04
20:40 16.04
21:00 16.04
22:30 16.04
22:40 16.04
23:00 16.04
23:10 16.04
23:30 16.04
23:40 16.04
23:50 16.04
00:00 17.04
00:10 17.04
00:20 17.04
01:10 17.04
01:20 17.04
01:30 17.04
01:50 17.04
02:10 17.04
02:30 17.04
02:40 17.04
02:50 17.04
03:10 17.04
03:30 17.04
03:50 17.04
04:00 17.04
04:40 17.04
05:00 17.04
05:20 17.04
05:30 17.04
05:50 17.04
06:00 17.04
06:10 17.04
06:20 17.04
06:30 17.04
06:40 17.04
06:50 17.04
07:10 17.04
07:30 17.04
08:30 17.04
09:00 17.04
10:50 17.04
16:20 17.04
16:40 17.04
16:50 17.04
17:00 17.04
17:20 17.04
17:40 17.04
18:00 17.04
18:10 17.04
18:30 17.04
18:40 17.04
19:00 17.04
19:10 17.04
19:20 17.04
19:30 17.04
19:50 17.04
20:00 17.04
20:10 17.04
20:30 17.04
20:50 17.04
21:00 17.04
21:20 17.04
21:30 17.04
21:40 17.04
22:00 17.04
22:10 17.04
22:30 17.04
22:40 17.04
22:50 17.04
23:10 17.04
23:20 17.04
23:30 17.04
23:40 17.04
00:00 18.04
00:30 18.04
00:40 18.04
01:10 18.04
01:20 18.04
01:40 18.04
01:50 18.04
02:00 18.04
02:20 18.04
02:30 18.04
02:50 18.04
03:10 18.04
03:20 18.04
03:30 18.04
03:50 18.04
04:00 18.04
04:10 18.04
04:30 18.04
04:40 18.04
04:50 18.04
05:00 18.04
05:40 18.04
06:00 18.04
06:10 18.04
06:20 18.04
06:40 18.04
06:50 18.04
07:00 18.04
07:10 18.04
07:30 18.04
07:50 18.04
08:00 18.04
08:10 18.04
08:30 18.04
11:00 18.04
11:40 18.04
12:10 20.04
12:20 20.04
12:30 20.04
12:40 20.04
12:50 20.04
13:00 20.04
13:10 20.04
13:20 20.04
13:30 20.04
13:40 20.04
13:50 20.04
14:00 20.04
14:20 20.04
14:30 20.04
14:40 20.04
14:50 20.04
15:00 20.04
15:10 20.04
15:30 20.04
15:40 20.04
16:00 20.04
16:10 20.04
16:20 20.04
16:30 20.04
16:40 20.04
16:50 20.04
17:00 20.04
17:20 20.04
Ветер
(напр.,м/с)
Видимость Явления Солнечная радиация
(Вт/м2)
Т
(С)
Тd
(С)
f
(%)
Тe
(С)
Тes
(С)
Комфортность P
(гПа)
Po
(гПа)
Тmin
(С)
Tmax
(С)
R
(мм)
С 1.9
{3.3}
+23.8 +3.7 27 +23 +23 комфорт 1020.7 1006.7 +24.2 +23.8
С 1.8
{2.8}
+22.8 +3.8 29 +23 +23 комфорт 1020.8 1006.8 +23.3 +22.8
С 1.7
{3.0}
+22.5 +2.9 28 +22 +22 комфорт 1020.7 1006.7 +22.8 +22.5
С 1.6
{2.6}
+22.0 +5.0 33 +22 +22 комфорт 1020.8 1006.8 +22.5 +22.0
С 1.5
{2.4}
+21.3 +5.3 35 +22 +22 комфорт 1020.8 1006.8 +22.0 +21.3
С 1.4
{2.5}
+20.8 +5.5 37 +23 +23 комфорт 1020.9 1006.9 +21.3 +20.8
С 1.6
{2.4}
+20.4 +5.8 38 +22 +22 комфорт 1021.0 1007.0 +20.8 +20.4
С 1.5
{2.1}
+19.9 +6.0 40 +21 +21 комфорт 1021.0 1007.0 +20.4 +20.0
С 1.4
{1.9}
+19.4 +6.2 42 +21 +21 комфорт 1021.1 1007.1 +19.9 +19.4
С 1.3
{2.1}
+18.4 +6.1 45 +20 +20 1021.4 1007.3 +18.9 +18.4
СВ 1.4
{1.8}
+16.1 +5.8 51 +17 +17 1021.4 1007.3 +16.2 +16.0
С 1.4
{1.8}
+15.9 +6.5 53 +16 +16 1021.4 1007.3 +16.1 +15.9
СВ 1.5
{2.2}
+16.0 +6.2 52 +16 +16 1021.2 1007.2 +16.0 +15.9
СВ 1.1
{1.6}
+15.8 +9.3 65 +16 +16 1021.4 1007.3 +16.0 +15.8
СВ 1.4
{1.8}
+14.9 +7.7 62 +15 +15 1021.4 1007.3 +15.3 +14.9
СВ 1.2
{1.4}
+14.6 +6.3 57 +15 +15 1021.4 1007.3 +14.9 +14.6
С 1.6
{2.4}
+14.7 +5.6 55 +15 +15 1021.4 1007.3 +14.7 +14.5
С 2.1
{2.9}
+15.6 +6.2 53 +16 +16 1021.2 1007.2 +15.6 +14.7
С 2.2
{3.1}
+16.1 +4.6 46 +16 +16 1021.2 1007.2 +16.1 +15.6
С 2.0
{3.2}
+15.8 +8.2 61 +16 +16 1021.2 1007.2 +16.5 +15.8
С 1.3
{1.8}
+14.0 +5.9 58 +14 +14 1020.8 1006.8 +14.1 +13.9
С 1.3
{1.8}
+14.0 +5.9 58 +14 +14 1020.7 1006.7 +14.1 +13.9
С 1.3
{1.8}
+13.9 +6.1 59 +14 +14 1020.6 1006.6 +14.0 +13.9
ЮВ 3.2
{5.1}
+15.2 +5.8 53 +15 +15 1020.9 1006.9 +15.2 +14.2
В 1.7
{2.6}
+15.2 +8.0 62 +15 +15 1020.9 1006.9 +15.4 +15.1
В 1.8
{2.2}
+14.9 +7.4 61 +15 +15 1020.7 1006.7 +15.2 +14.9
В 1.6
{2.1}
+14.9 +6.8 58 +15 +15 1020.6 1006.6 +14.9 +14.9
В 2.3
{3.0}
+15.0 +5.7 54 +15 +15 1020.6 1006.6 +15.1 +14.9
В 2.4
{3.0}
+14.5 +5.9 56 +14 +14 1020.6 1006.6 +14.8 +14.5
В 1.4
{2.2}
+14.1 +6.2 59 +14 +14 1020.7 1006.7 +14.3 +14.1
В 1.5
{2.5}
+13.7 +6.8 63 +14 +14 1020.8 1006.8 +14.1 +13.7
В 1.6
{2.8}
+13.7 +7.5 66 +14 +14 1020.7 1006.7 +13.7 +13.6
В 1.5
{2.2}
+13.3 +10.0 80 +13 +13 1020.7 1006.7 +13.6 +13.3
В 2.1
{2.6}
+13.2 +13.2 100 +12 +12 1020.6 1006.6 +13.3 +13.2
В 1.8
{2.6}
+13.2 +13.2 100 +12 +12 1020.9 1006.9 +13.3 +13.2
В 1.9
{2.5}
+13.3 +12.0 92 +13 +13 1020.9 1006.9 +13.3 +13.2
В 2.3
{3.4}
+13.4 +10.6 83 +13 +13 1020.9 1006.9 +13.5 +13.4
В 2.5
{3.1}
+13.3 +12.6 95 +12 +12 1021.0 1007.0 +13.4 +13.3
ЮВ 2.7
{3.4}
+13.6 +13.6 100 +12 +12 1021.0 1007.0 +13.6 +13.3
ЮВ 3.0
{4.0}
+13.9 +13.7 99 +13 +13 1021.1 1007.1 +13.9 +13.6
ЮВ 3.0
{4.0}
+14.0 +13.1 94 +13 +13 1021.2 1007.2 +14.0 +13.9
ЮВ 2.3
{3.4}
+13.8 +12.4 91 +13 +13 1021.2 1007.2 +14.0 +13.8
В 2.1
{2.7}
+13.9 +13.6 98 +13 +13 1021.4 1007.3 +13.9 +13.8
ЮВ 2.3
{3.6}
+15.0 +12.2 83 +15 +15 1021.5 1007.4 +15.0 +14.4
В 2.2
{3.3}
+16.1 +11.6 75 +16 +16 1021.5 1007.4 +16.1 +15.6
В 2.8
{3.6}
+18.4 +10.4 59 +19 +19 1021.5 1007.4 +18.4 +17.9
В 2.7
{3.8}
+19.9 +10.4 54 +22 +22 комфорт 1021.6 1007.5 +19.9 +19.5
В 2.5
{4.2}
+24.9 +8.0 34 +25 +25 комфорт 1021.5 1007.5 +25.0 +24.6
В 5.1
{7.8}
+28.5 +1.0 17 +26 +26 жарко 1017.8 1003.8 +28.6 +28.5
СВ 4.1
{6.6}
+28.6 +1.2 17 +26 +26 жарко 1017.7 1003.7 +28.7 +28.5
СВ 4.8
{9.1}
+28.2 +1.5 18 +26 +26 жарко 1017.6 1003.6 +28.6 +28.2
СВ 4.9
{7.9}
+28.3 +0.8 17 +26 +26 жарко 1017.6 1003.6 +28.4 +28.2
СВ 4.3
{7.2}
+28.3 +1.8 18 +26 +26 жарко 1017.5 1003.5 +28.3 +28.0
В 4.8
{8.1}
+28.0 +0.7 17 +26 +26 жарко 1017.4 1003.4 +28.2 +28.0
СВ 4.9
{8.2}
+27.7 +2.0 19 +26 +26 жарко 1017.3 1003.3 +27.9 +27.7
СВ 4.7
{8.0}
+27.6 +1.6 19 +26 +26 жарко 1017.3 1003.3 +27.7 +27.6
СВ 4.7
{8.1}
+27.2 +1.4 19 +25 +25 комфорт 1017.3 1003.3 +27.4 +27.2
СВ 3.5
{6.2}
+27.0 +2.1 20 +25 +25 комфорт 1017.2 1003.2 +27.2 +27.0
В 3.8
{6.1}
+26.4 +3.5 23 +25 +25 комфорт 1017.2 1003.2 +26.6 +26.4
СВ 3.4
{5.7}
+26.0 +3.0 22 +25 +25 комфорт 1017.2 1003.2 +26.4 +26.0
СВ 3.5
{5.4}
+25.6 +2.6 22 +24 +24 комфорт 1017.2 1003.2 +26.0 +25.6
СВ 3.1
{4.7}
+25.1 +3.7 25 +24 +24 комфорт 1017.3 1003.3 +25.6 +25.1
СВ 3.0
{4.4}
+24.1 +3.6 26 +23 +23 комфорт 1017.5 1003.5 +24.5 +24.1
СВ 2.7
{4.0}
+23.6 +3.4 27 +23 +23 комфорт 1017.6 1003.6 +24.1 +23.6
СВ 2.7
{3.9}
+23.1 +2.7 26 +23 +23 комфорт 1017.7 1003.7 +23.6 +23.1
СВ 2.2
{2.9}
+22.2 +2.7 28 +22 +22 комфорт 1017.9 1003.9 +22.6 +22.2
СВ 1.9
{2.5}
+21.7 +2.2 28 +22 +22 комфорт 1018.0 1004.0 +21.8 +21.7
СВ 1.9
{2.6}
+21.4 +3.6 31 +22 +22 комфорт 1018.0 1004.0 +21.7 +21.4
С 1.4
{2.4}
+20.7 +3.8 33 +22 +22 комфорт 1018.1 1004.1 +21.3 +20.8
С 0.6
{1.3}
+19.8 +4.2 36 +22 +22 комфорт 1018.2 1004.2 +20.7 +19.9
С 0.7
{1.1}
+19.0 +4.7 39 +21 +21 комфорт 1018.1 1004.1 +19.8 +19.0
С 1.8
{2.6}
+19.3 +5.3 40 +20 +20 1018.2 1004.2 +19.3 +19.1
С 1.9
{3.1}
+19.3 +4.7 38 +20 +20 1018.2 1004.2 +19.3 +19.2
С 1.7
{2.7}
+18.7 +4.8 40 +20 +20 1018.0 1004.0 +19.0 +18.7
С 1.4
{2.2}
+18.5 +4.8 40 +20 +20 1018.0 1004.0 +18.8 +18.5
С 0.8
{1.0}
+17.8 +5.3 43 +19 +19 1018.0 1004.0 +18.5 +17.8
С 1.8
{2.5}
+17.1 +4.0 42 +18 +18 1017.8 1003.8 +17.2 +17.0
С 2.0
{2.9}
+17.2 +4.1 42 +18 +18 1017.7 1003.7 +17.2 +17.0
С 2.3
{3.4}
+17.6 +3.7 39 +18 +18 1017.6 1003.6 +17.6 +17.2
С 2.3
{3.2}
+17.6 +3.6 39 +18 +18 1017.5 1003.5 +17.7 +17.6
С 2.4
{3.5}
+17.7 +3.5 39 +18 +18 1017.4 1003.4 +17.8 +17.6
СВ 2.3
{3.2}
+17.6 +3.3 39 +18 +18 1017.4 1003.4 +17.7 +17.6
С 1.1
{2.7}
+17.1 +3.3 40 +18 +18 1017.3 1003.3 +17.6 +17.1
С 0.6
{1.4}
+16.4 +3.3 41 +18 +18 1017.2 1003.2 +16.8 +16.4
СВ 0.9
{2.6}
+16.6 +2.6 39 +18 +18 1017.1 1003.1 +16.6 +16.3
СВ 2.2
{3.5}
+17.3 +4.2 42 +18 +18 1017.1 1003.1 +17.4 +17.3
В 0.9
{1.9}
+16.5 +4.4 44 +18 +18 1017.1 1003.1 +17.3 +16.5
В 1.3
{2.5}
+16.0 +5.4 49 +17 +17 1017.0 1003.0 +16.5 +15.8
СВ 1.0
{2.4}
+15.0 +5.5 53 +16 +16 1016.9 1002.9 +15.3 +15.0
В 0.3
{0.8}
+14.5 +5.8 56 +16 +16 1016.8 1002.8 +15.0 +14.5
В 0.6
{1.2}
+13.8 +6.3 60 +15 +15 1016.8 1002.8 +14.2 +13.8
СВ 0.8
{1.2}
+13.3 +6.0 61 +14 +14 1016.7 1002.7 +13.6 +13.3
СВ 0.9
{1.3}
+13.2 +5.9 61 +14 +14 1016.7 1002.7 +13.3 +13.1
СВ 1.1
{1.6}
+13.1 +5.7 61 +13 +13 1016.7 1002.7 +13.2 +13.1
С 1.3
{1.8}
+13.3 +5.3 58 +13 +13 1016.7 1002.7 +13.3 +13.1
СВ 1.5
{2.2}
+14.4 +4.6 52 +15 +15 1016.7 1002.7 +14.4 +13.3
СВ 1.8
{2.5}
+15.1 +3.6 46 +15 +15 1016.8 1002.8 +15.1 +14.4
СВ 1.9
{3.2}
+14.9 +3.3 46 +15 +15 1016.7 1002.7 +14.9 +14.9
СВ 1.7
{2.7}
+15.0 +3.3 45 +15 +15 1016.7 1002.7 +15.0 +14.9
СВ 1.8
{3.3}
+15.3 +3.0 44 +15 +15 1016.7 1002.7 +15.3 +15.0
СВ 1.2
{2.5}
+15.2 +2.9 43 +16 +16 1016.7 1002.7 +15.3 +15.2
СВ 1.4
{2.9}
+14.9 +2.7 44 +15 +15 1016.9 1002.9 +15.0 +14.6
С 1.3
{2.0}
+14.5 +3.2 47 +15 +15 1016.9 1002.9 +14.8 +14.5
СВ 1.4
{2.1}
+14.3 +3.7 49 +15 +15 1016.9 1002.9 +14.5 +14.3
СВ 1.5
{2.4}
+14.1 +4.0 51 +14 +14 1017.0 1003.0 +14.3 +14.1
СВ 2.3
{4.0}
+14.6 +3.4 47 +14 +14 1017.0 1003.0 +14.6 +14.2
СВ 3.0
{5.1}
+15.6 +3.6 45 +15 +15 1017.2 1003.2 +15.6 +14.6
В 2.4
{4.5}
+16.1 +4.9 47 +16 +16 1017.3 1003.3 +16.2 +15.6
ЮЗ 0.6
{1.6}
+16.0 +5.0 48 +17 +17 1017.3 1003.3 +16.1 +16.0
В 2.1
{3.9}
+17.6 +4.6 42 +18 +18 1017.4 1003.4 +17.6 +16.6
СВ 3.2
{5.1}
+19.0 +4.4 38 +19 +19 1017.5 1003.5 +19.0 +18.4
В 3.3
{5.3}
+19.7 +4.5 37 +20 +20 1017.5 1003.5 +19.7 +19.0
В 3.2
{4.9}
+20.2 +5.5 38 +21 +21 комфорт 1017.6 1003.6 +20.2 +19.7
В 4.1
{6.5}
+21.0 +4.6 34 +22 +22 комфорт 1017.5 1003.5 +21.0 +20.6
СВ 7.5
{10.8}
+26.3 +4.4 24 +25 +25 комфорт 1016.9 1002.9 +26.3 +26.0
В 6.8
{11.0}
+27.5 +4.6 23 +26 +26 жарко 1016.4 1002.4 +27.4 +26.8
С 2.6
{10.7}
+30.3 +1.3 15 +28 +28 жарко 1008.8 994.9 +30.5 +30.0
СВ 3.0
{7.1}
+30.3 +1.4 16 +28 +28 жарко 1008.7 994.8 +30.5 +30.2
С 3.2
{6.4}
+29.9 +1.1 16 +27 +27 жарко 1008.6 994.7 +30.7 +30.0
С 2.8
{5.8}
+30.7 +2.2 16 +28 +28 жарко 1008.5 994.6 +30.7 +29.9
С 3.6
{6.5}
+30.3 +1.4 16 +28 +28 жарко 1008.4 994.5 +30.8 +30.1
С 3.3
{7.0}
+30.6 +2.4 17 +28 +28 жарко 1008.4 994.5 +31.0 +30.3
С 3.4
{6.0}
+30.5 +1.6 16 +28 +28 жарко 1008.3 994.4 +30.7 +30.4
С 3.8
{6.7}
+30.7 +2.0 16 +28 +28 жарко 1008.3 994.4 +30.7 +30.4
С 3.5
{7.7}
+30.7 +2.8 17 +28 +28 жарко 1008.2 994.3 +30.9 +30.6
С 4.1
{7.7}
+30.6 +2.3 16 +28 +28 жарко 1008.1 994.2 +30.9 +30.4
С 3.9
{7.7}
+31.0 +2.5 16 +28 +28 жарко 1008.1 994.2 +31.0 +30.6
СЗ 3.6
{6.5}
+31.5 +2.3 16 +29 +29 жарко 1008.0 994.1 +31.6 +31.0
С 3.0
{5.7}
+31.3 +2.4 16 +29 +29 жарко 1007.9 994.0 +32.2 +31.2
СЗ 2.3
{5.5}
+31.6 +2.9 16 +29 +29 жарко 1007.8 993.9 +31.6 +31.2
СЗ 3.2
{6.2}
+31.4 +2.3 16 +29 +29 жарко 1007.6 993.7 +31.6 +31.3
СЗ 3.0
{6.4}
+31.2 +2.6 16 +29 +29 жарко 1007.6 993.7 +31.6 +31.1
СЗ 1.9
{4.3}
+32.1 +1.9 15 +29 +29 жарко 1007.5 993.6 +32.1 +31.2
СЗ 2.6
{4.9}
+31.8 +1.5 15 +29 +29 жарко 1007.4 993.5 +32.1 +31.7
СЗ 2.6
{5.2}
+31.4 +2.0 15 +29 +29 жарко 1007.3 993.4 +31.5 +31.3
С 2.9
{5.5}
+31.1 +2.3 16 +29 +29 жарко 1007.3 993.4 +31.7 +31.1
С 2.6
{5.4}
+31.3 +2.9 17 +29 +29 жарко 1007.3 993.4 +31.3 +30.8
С 3.1
{5.7}
+31.2 +2.9 17 +29 +29 жарко 1007.3 993.4 +31.5 +31.1
С 2.2
{4.7}
+31.0 +1.0 15 +28 +28 жарко 1007.3 993.4 +31.2 +31.0
СЗ 2.5
{4.6}
+31.6 +2.9 16 +29 +29 жарко 1007.3 993.4 +31.6 +31.0
СЗ 2.6
{4.6}
+31.4 +1.9 15 +29 +29 жарко 1007.3 993.4 +31.6 +31.2
СЗ 2.4
{6.6}
+31.4 +2.3 16 +29 +29 жарко 1007.2 993.3 +31.4 +31.0
С 2.3
{4.3}
+31.0 +2.2 16 +28 +28 жарко 1007.2 993.3 +31.6 +31.0
СЗ 2.3
{4.7}
+30.9 +2.6 16 +28 +28 жарко 1007.3 993.4 +31.1 +30.9
Местоположение метеостанции Туямуюн (Хорезмская область, Узбекистан): широта 41.20 долгота 61.38 высота над уровнем моря 0 м.
В архиве по умолчанию представлена погода в Туямуюне за последние 1-2 суток. Обновление информации о фактической погоде в базе происходит ежечасно! Архивные данные за месяц целиком и за предыдущие месяцы Вы можете получить, выбрав интересующий диапазон дат из раскрывающегося списка и нажав кнопку "Ввод!".
*Определитесь, кто Вы:
Внимание! Время в таблицах - местное (без учета летнего времени). Для получения всемирного времени необходимо вычесть поправку, которая равна 5 ч.
Смотрите также архив погоды на ближайших метеорологических станциях:
Партнеры нашего сайта:      
Пояснения к столбцам:
  • Ветер - указаны скорость ветра в м/с - средняя за 10 мин, порывы в срок и между сроками (в фигурных скобках) и направление, откуда дует ветер: С - северный,
  • СВ - северо-восточный, В - восточный, ЮВ - юго-восточный, Ю - южный, ЮЗ - юго-западный, З - западный, СЗ - северо-западный.
  • Видимость - горизонтальная дальность видимости в метрах или километрах. При видимости от 1 до 10 км при отсутствии осадков обычно наблюдается дымка, при ухудшении видимости до 1 км и менее - туман. В сухую погоду видимость может ухудшаться дымом, пылью или мглою.
  • Явления - указаны атмосферные явления, наблюдавшиеся в срок или в последний час перед сроком.
  • Солнечная радиация - мощность потока солнечного излучения на поверхность земли и предметов в Вт/м2.
  • T - Температура воздуха - температура, измеренная на высоте 2 м над землей.
  • Td - Температура точки росы - температура, при понижении до которой содержащийся в воздухе водяной пар достигнет насыщения.
  • f - Относительная влажность воздуха - влажноcть воздуха, измеренная на высоте 2 м над землей.
  • Te - Эффективная температура - температура, которую ощущает одетый по сезону человек в тени. Характеристика душности погоды. При расчете учитывается влияние влажности воздуха и скорости ветра на теплоощущения человека.
  • Tes - Эффективная температура на солнце - температура, которую ощущает человек, с поправкой на солнечный нагрев. Характеристика знойности погоды. Зависит от высоты солнца над горизонтом, облачности и скорости ветра. Ночью, в пасмурную погоду, а также при ветре 12 м/с и более поправка равна нулю.
  • P - Атмосферное давление - приведенное к уровню моря атмосферное давление.
  • Po - Атмосферное давление - измеренное на уровне метеостанции атмосферное давление.
  • Tmin - Минимальная температура - минимум температуры воздуха на высоте 2 м над землей.
  • Tmax - Максимальная температура - максимум температуры воздуха на высоте 2 м над землей.
  • R - Количество осадков - Количество выпавших осадков за период времени, мм. При наведении курсора мыши на число - период времени, за который выпало указанное количество осадков.